Santa Fe, NM

9:40 AM MDT on May 22, 2017 (GMT -0600)
Santa Fe Municipal

Weather History for KSAF - October, 2012

Change the Weather History Date:

Wednesday, October 17, 2012

  Actual Average Record
Temperature  
Mean Temperature 60 °F -  
Max Temperature 75 °F 68 °F 81 °F (2016)
Min Temperature 44 °F 28 °F 24 °F (1980)
Degree Days  
Heating Degree Days 6    
Growing Degree Days 10 (Base 50)    
Moisture  
Dew Point 9 °F    
Average Humidity 17    
Maximum Humidity 41    
Minimum Humidity 4    
Precipitation  
Precipitation 0.00 in - - ()
Sea Level Pressure  
Sea Level Pressure 29.74 in    
Wind  
Wind Speed 12 mph (NW)    
Max Wind Speed 26 mph    
Max Gust Speed 38 mph    
Visibility 10 miles    
Events      
Averages and records for this station are not official NWS values.
T = Trace of Precipitation, MM = Missing Value Source: NWS Daily Summary

Daily Weather History Graph

Daily Weather History Graph

Search for Another Location

Airport or City:

Trip Planner

Search our weather history database for the weather conditions in past years. The results will help you decide how hot, cold, wet, or windy it might be!

Date:

Astronomy

Oct. 17, 2012 Rise Set
Actual Time 7:13 AM MDT 6:25 PM MDT
Civil Twilight 6:47 AM MDT 6:51 PM MDT
Nautical Twilight 6:17 AM MDT 7:20 PM MDT
Astronomical Twilight 5:48 AM MDT 7:50 PM MDT
Moon 9:44 AM MDT (10/17) 8:10 PM MDT (10/17)
Length of Visible Light 12h 04m
Length of Day
11h 12m
Waxing Crescent, 7% of the Moon is Illuminated
Oct 17
Waxing Crescent
Oct 21
First Quarter
Oct 29
Full
Nov 6
Last Quarter
Nov 13
New

Hourly Weather History & Observations

Time (MDT) Temp. Windchill Dew Point Humidity Pressure Visibility Wind Dir Wind Speed Gust Speed Precip Events Conditions
12:53 AM 59.0 °F - 15.1 °F 18% 29.65 in 10.0 mi West 10.4 mph - N/A   Clear
1:53 AM 55.0 °F - 16.0 °F 22% 29.67 in 10.0 mi WSW 5.8 mph - N/A   Clear
2:53 AM 50.0 °F - 17.1 °F 27% 29.67 in 10.0 mi North 3.5 mph - N/A   Clear
3:53 AM 48.9 °F - 18.0 °F 29% 29.65 in 10.0 mi West 8.1 mph - N/A   Clear
4:53 AM 48.0 °F - 19.0 °F 32% 29.66 in 10.0 mi West 6.9 mph - N/A   Clear
5:53 AM 54.0 °F - 25.0 °F 33% 29.66 in 10.0 mi WSW 5.8 mph - N/A   Clear
6:53 AM 48.9 °F - 26.1 °F 41% 29.74 in 10.0 mi WNW 9.2 mph - N/A   Clear
7:53 AM 57.9 °F - 30.0 °F 35% 29.74 in 10.0 mi WNW 12.7 mph - N/A   Clear
8:48 AM 62.6 °F - 28.4 °F 27% 29.96 in 10.0 mi WNW 23.0 mph 34.5 mph N/A   Clear
8:53 AM 63.0 °F - 28.0 °F 27% 29.73 in 10.0 mi WNW 23.0 mph 34.5 mph N/A   Clear
9:53 AM 66.9 °F - 16.0 °F 14% 29.72 in 10.0 mi NW 26.5 mph 38.0 mph N/A   Clear
10:53 AM 69.1 °F - 9.0 °F 10% 29.72 in 10.0 mi WNW 18.4 mph 25.3 mph N/A   Clear
11:53 AM 70.0 °F - 7.0 °F 9% 29.73 in 10.0 mi WNW 23.0 mph 28.8 mph N/A   Clear
12:53 PM 71.1 °F - 5.0 °F 8% 29.72 in 10.0 mi WNW 17.3 mph 27.6 mph N/A   Clear
1:53 PM 73.0 °F - -0.9 °F 5% 29.68 in 10.0 mi WNW 20.7 mph 29.9 mph N/A   Clear
2:53 PM 73.9 °F - -0.9 °F 5% 29.69 in 10.0 mi WNW 16.1 mph 28.8 mph N/A   Clear
3:53 PM 73.0 °F - -9.0 °F 4% 29.70 in 10.0 mi NW 19.6 mph 31.1 mph N/A   Clear
4:53 PM 72.0 °F - -11.0 °F 4% 29.70 in 10.0 mi NW 17.3 mph 23.0 mph N/A   Clear
5:53 PM 69.1 °F - -11.9 °F 4% 29.71 in 10.0 mi NW 16.1 mph - N/A   Clear
6:53 PM 60.1 °F - -2.0 °F 8% 29.81 in 10.0 mi North 6.9 mph - N/A   Clear
7:53 PM 55.0 °F - -2.0 °F 10% 29.81 in 10.0 mi North 9.2 mph - N/A   Clear
8:53 PM 51.1 °F - -0.0 °F 12% 29.84 in 10.0 mi NW 6.9 mph - N/A   Clear
9:53 PM 48.0 °F - -0.0 °F 14% 29.85 in 10.0 mi NW 10.4 mph - N/A   Clear
10:53 PM 46.0 °F 41.4 °F -0.0 °F 15% 29.85 in 10.0 mi North 9.2 mph - N/A   Clear
11:53 PM 44.1 °F 40.8 °F 1.0 °F 17% 29.87 in 10.0 mi NNW 5.8 mph - N/A   Clear